Detroit Metro, MI

9:24 PM EDT on March 27, 2017 (GMT -0400)
Detroit Metro Wayne County

Weather History for KDTW - November, 2012

Change the Weather History Date:

Thursday, November 22, 2012

  Actual Average Record
Temperature  
Mean Temperature 49 °F 39 °F  
Max Temperature 62 °F 46 °F 69 °F (1913)
Min Temperature 35 °F 32 °F 0 °F (1880)
Degree Days  
Heating Degree Days 16 26  
Month to date heating degree days 496 481  
Since 1 July heating degree days 989 992  
Cooling Degree Days 0 0  
Month to date cooling degree days 0 0  
Year to date cooling degree days 1156 803  
Moisture  
Dew Point 39 °F    
Average Humidity 76    
Maximum Humidity 100    
Minimum Humidity 51    
Precipitation  
Precipitation 0.05 in 0.09 in 2.59 in (1909)
Month to date precipitation 0.61 2.05  
Year to date precipitation 24.36 30.27  
Snow  
Snow 0.00 in 0.10 in 1.10 in (2002)
Month to date snowfall T 0.7  
Since 1 July snowfall T 0.8  
Since 1 September snowfall T 0.8  
Snow Depth 0.00 in    
Sea Level Pressure  
Sea Level Pressure 30.09 in    
Wind  
Wind Speed 10 mph (South)    
Max Wind Speed 24 mph    
Max Gust Speed 29 mph    
Visibility 4 miles    
Events Fog    
T = Trace of Precipitation, MM = Missing Value Source: NWS Daily Summary

Daily Weather History Graph

Daily Weather History Graph

Search for Another Location

Airport or City:

Trip Planner

Search our weather history database for the weather conditions in past years. The results will help you decide how hot, cold, wet, or windy it might be!

Date:

Astronomy

Nov. 22, 2012 Rise Set
Actual Time 7:32 AM EST 5:06 PM EST
Civil Twilight 7:02 AM EST 5:36 PM EST
Nautical Twilight 6:27 AM EST 6:11 PM EST
Astronomical Twilight 5:54 AM EST 6:44 PM EST
Moon 1:56 PM EST (11/22) 1:46 AM EST (11/22)
Length of Visible Light 10h 34m
Length of Day
9h 33m
Waxing Gibbous, 71% of the Moon is Illuminated
Nov 22
Waxing Gibbous
Nov 28
Full
Dec 6
Last Quarter
Dec 13
New
Dec 20
First Quarter

Hourly Weather History & Observations

Time (EST) Temp. Windchill Dew Point Humidity Pressure Visibility Wind Dir Wind Speed Gust Speed Precip Events Conditions
12:53 AM 37.0 °F 33.3 °F 35.1 °F 93% 30.19 in 3.0 mi South 4.6 mph - N/A   Scattered Clouds
1:09 AM 37.4 °F 34.9 °F 35.6 °F 93% 30.17 in 2.5 mi South 3.5 mph - N/A   Mostly Cloudy
1:46 AM 37.4 °F 33.8 °F 33.8 °F 87% 30.17 in 1.5 mi South 4.6 mph - N/A   Mostly Cloudy
1:53 AM 37.9 °F 33.5 °F 36.0 °F 93% 30.18 in 1.5 mi South 5.8 mph - N/A   Mostly Cloudy
2:34 AM 37.4 °F 32.8 °F 37.4 °F 100% 30.16 in 1.2 mi South 5.8 mph - N/A   Mostly Cloudy
2:53 AM 37.9 °F 33.5 °F 36.0 °F 93% 30.17 in 1.2 mi South 5.8 mph - N/A   Mostly Cloudy
3:53 AM 37.9 °F 32.7 °F 36.0 °F 93% 30.16 in 1.0 mi South 6.9 mph - N/A   Mostly Cloudy
4:11 AM 37.4 °F 32.8 °F 35.6 °F 93% 30.15 in 0.8 mi South 5.8 mph - N/A   Overcast
4:53 AM 36.0 °F 31.1 °F 35.1 °F 97% 30.16 in 0.8 mi South 5.8 mph - N/A   Overcast
5:39 AM 35.6 °F 31.7 °F 35.6 °F 100% 30.15 in 0.5 mi South 4.6 mph - N/A Fog Fog
5:51 AM 37.4 °F 32.1 °F 35.6 °F 93% 30.15 in 0.2 mi South 6.9 mph - N/A Fog Fog
5:53 AM 36.0 °F 30.3 °F 35.1 °F 97% 30.17 in 0.2 mi South 6.9 mph - N/A Fog Fog
5:59 AM 35.6 °F 29.9 °F 35.6 °F 100% 30.16 in 0.1 mi South 6.9 mph - N/A Fog Fog
6:25 AM 37.4 °F 32.8 °F 35.6 °F 93% 30.15 in 0.0 mi South 5.8 mph - N/A Fog Fog
6:53 AM 37.0 °F 32.4 °F 36.0 °F 96% 30.16 in 0.0 mi SSW 5.8 mph - N/A Fog Fog
7:53 AM 35.1 °F 31.0 °F 34.0 °F 96% 30.16 in 0.1 mi SSW 4.6 mph - N/A Fog Fog
8:53 AM 37.0 °F 33.3 °F 36.0 °F 96% 30.16 in 0.1 mi South 4.6 mph - N/A Fog Fog
9:09 AM 37.4 °F 33.8 °F 37.4 °F 100% 30.15 in 0.2 mi SSW 4.6 mph - N/A Fog Fog
9:32 AM 39.2 °F 35.0 °F 39.2 °F 100% 30.15 in 0.2 mi South 5.8 mph - N/A Fog Fog
9:43 AM 39.2 °F 34.2 °F 39.2 °F 100% 30.14 in 0.5 mi South 6.9 mph - N/A   Scattered Clouds
9:53 AM 41.0 °F 37.1 °F 39.9 °F 96% 30.15 in 0.5 mi South 5.8 mph - N/A   Scattered Clouds
10:14 AM 42.8 °F 38.6 °F 41.0 °F 93% 30.13 in 2.0 mi South 6.9 mph - N/A   Partly Cloudy
10:53 AM 50.0 °F - 43.0 °F 77% 30.13 in 2.0 mi South 10.4 mph - N/A   Haze
11:02 AM 51.8 °F - 42.8 °F 71% 30.12 in 3.0 mi SSW 9.2 mph - N/A   Haze
11:53 AM 57.0 °F - 44.1 °F 62% 30.09 in 7.0 mi South 12.7 mph - N/A   Scattered Clouds
12:53 PM 61.0 °F - 43.0 °F 52% 30.06 in 10.0 mi South 19.6 mph 28.8 mph N/A   Mostly Cloudy
1:53 PM 61.0 °F - 43.0 °F 52% 30.04 in 10.0 mi South 20.7 mph - N/A   Scattered Clouds
2:53 PM 61.0 °F - 42.1 °F 50% 30.01 in 10.0 mi SSW 17.3 mph - N/A   Mostly Cloudy
3:53 PM 60.1 °F - 42.1 °F 51% 30.00 in 9.0 mi South 16.1 mph - N/A   Mostly Cloudy
4:53 PM 57.0 °F - 42.1 °F 57% 29.98 in 9.0 mi SSE 12.7 mph - N/A   Mostly Cloudy
5:53 PM 54.0 °F - 41.0 °F 62% 29.98 in 10.0 mi South 9.2 mph - N/A   Mostly Cloudy
6:53 PM 55.0 °F - 41.0 °F 59% 29.96 in 10.0 mi SSE 12.7 mph - N/A   Mostly Cloudy
7:53 PM 54.0 °F - 41.0 °F 62% 29.95 in 10.0 mi South 12.7 mph - N/A   Mostly Cloudy
8:53 PM 55.0 °F - 41.0 °F 59% 29.94 in 10.0 mi South 15.0 mph - N/A   Overcast
9:53 PM 52.0 °F - 46.0 °F 80% 29.92 in 10.0 mi South 10.4 mph - 0.05 in   Overcast
10:53 PM 52.0 °F - 45.0 °F 77% 29.88 in 10.0 mi South 11.5 mph - N/A   Overcast
11:53 PM 53.1 °F - 43.0 °F 69% 29.84 in 10.0 mi South 13.8 mph - N/A   Mostly Cloudy